sat.trackr.live / text

‹ back to catalog

STARLINK-30819

NORAD 58179 · 2023-167E

PAYLOAD ACTIVE UNKNOWN

§ Identity

Operator
Country
US
Launch date
2023-10-30
Launch site
AFETR
Launch vehicle
Mass (kg)
RCS (m²)

Purposes: comms

External: N2YO · Heavens-Above · Gunter

§ Orbital elements

Epoch: 2026-09-19T00:41:59.511264Z

Period
94.27 min
Inclination
43.0038°
Eccentricity
0.0001317
Mean motion
15.27577618 rev/d
Perigee alt
482.2 km
Apogee alt
484.0 km
Semi-major
6,861.2 km
B*
1.5448e-5
RAAN
131.5433°
Arg perigee
277.0271°
Mean anomaly
83.0431°
Rev number
16,055

§ Raw data

STARLINK-308191 58179U 23167E   26262.02916101  .00000163  00000+0  15448-4 0  99922 58179  43.0038 131.5433 0001317 277.0271  83.0431 15.27577618160553

JSON: /api/v1/satellites/58179 · /tle

For live sub-satellite position, see the globe view (requires WebGL).

§ Visibility from observer

Set your observer location to see the next 7 days of passes ≥ 10°. The values pass through the URL so the page stays shareable.

No JS? Fill the form by hand. The geolocation button needs JavaScript.